changsha , China , ASIA

  • Sunday
    July 22

      Shower

      81 °F

      East

       

  • Monday
    July 23

    Shower  Cloudy

    95 °F  82 °F

    East  Southeast

        

  • Tuesday
    July 24

    Cloudy  Cloudy

    99 °F  84 °F

    East  South

        

  • Wednesday
    July 25

    Cloudy  Sunny

    99 °F  86 °F

    Southeast  South

        

  • Thursday
    July 26

    Sunny  Sunny

    99 °F  86 °F

    Southeast  South

        

  • Friday
    July 27

    Sunny  Sunny

    99 °F  84 °F

    Southeast  South

        

  • Saturday
    July 28

    Sunny  Sunny

    97 °F  84 °F

    Southeast  South

        

Date   Weather Temperature Humidity Total_rain Visibility Wind
23:00 Shower 83°F 92.2% 1.2mm 999.9km Northeast  0.9m/s
02:00 Shower 82°F 94.2% 0.1mm 999.9km Southeast  1.2m/s
05:00 Shower 81°F 95.1% 1.1mm 999.9km Southeast  1.0m/s
08:00 Cloudy 83°F 90.1% 0mm 999.9km Northeast  1.0m/s
11:00 Shower 91°F 81.6% 2.2mm 999.9km Southeast  0.8m/s
14:00 Shower 95°F 81.7% 3.6mm 999.9km Southwest  2.1m/s
17:00 Shower 93°F 77.5% 0.6mm 999.9km Southeast  2.5m/s
20:00 Cloudy 87°F 73.8% 0mm 999.9km Northeast  1.3m/s
23:00 Cloudy 84°F 93.6% 0mm 999.9km Northeast  1.1m/s
02:00 Cloudy 83°F 95.6% 0mm 999.9km Northeast  1.6m/s
05:00 Cloudy 83°F 97.5% 0mm 999.9km Southeast  0.6m/s
08:00 Cloudy 88°F 91.6% 0mm 999.9km Southeast  1.2m/s
11:00 Cloudy 96°F 79.9% 0mm 999.9km Southeast  2.1m/s
14:00 Cloudy 98°F 83.1% 0mm 999.9km Southeast  1.7m/s
17:00 Cloudy 95°F 83.6% 0mm 999.9km Southeast  3.0m/s
20:00 Cloudy 91°F 73.3% 0mm 999.9km Southeast  1.7m/s
23:00 Cloudy 88°F 90.9% 0mm 999.9km Southeast  1.4m/s
02:00 Cloudy 85°F 94.7% 0mm 999.9km Southeast  1.4m/s
05:00 Cloudy 85°F 95.3% 0mm 999.9km Southeast  1.5m/s
08:00 Cloudy 91°F 87.9% 0mm 999.9km Southeast  1.3m/s
11:00 Cloudy 95°F 78.7% 0mm 999.9km Southeast  2.5m/s
14:00 Cloudy 98°F 78.3% 0mm 999.9km Southeast  2.2m/s
17:00 Cloudy 97°F 81.7% 0mm 999.9km Southeast  2.4m/s
20:00 Cloudy 91°F 71.7% 0mm 999.9km Southeast  1.9m/s
23:00 Sunny 88°F 91.1% 0mm 999.9km Southeast  1.4m/s
02:00 Sunny 86°F 92.4% 0mm 999.9km Southeast  1.1m/s
05:00 Sunny 87°F 91.9% 0mm 999.9km Southeast  1.5m/s
08:00 Sunny 89°F 85.3% 0mm 999.9km Southeast  2.2m/s
11:00 Sunny 95°F 77.8% 0mm 999.9km Southeast  2.5m/s
14:00 Sunny 97°F 71.8% 0mm 999.9km Southeast  2.3m/s
17:00 Sunny 98°F 71.9% 0mm 999.9km Southeast  2.8m/s
20:00 Sunny 93°F 64.8% 0mm 999.9km Southeast  1.9m/s
23:00 Sunny 91°F 89.9% 0mm 999.9km Southeast  1.7m/s
02:00 Sunny 86°F 91.1% 0mm 999.9km Southeast  1.7m/s
05:00 Sunny 87°F 92.8% 0mm 999.9km Southeast  1.5m/s
08:00 Sunny 89°F 86.8% 0mm 999.9km Southeast  1.9m/s
11:00 Sunny 98°F 66% 0mm 999.9km Southwest  2.2m/s
14:00 Sunny 98°F 66.2% 0mm 999.9km Southeast  2.0m/s
17:00 Sunny 98°F 63.5% 0mm 999.9km Southeast  3.0m/s
20:00 Sunny 92°F 60.7% 0mm 999.9km Southeast  2.4m/s
23:00 Sunny 90°F 81.7% 0mm 999.9km Southeast  1.5m/s
02:00 Sunny 85°F 92.7% 0mm 999.9km Southeast  1.5m/s
05:00 Sunny 85°F 85.9% 0mm 999.9km Southeast  1.2m/s
08:00 Sunny 88°F 80.8% 0mm 999.9km Southeast  1.6m/s
11:00 Sunny 93°F 74.7% 0mm 999.9km Southwest  2.1m/s
14:00 Sunny 96°F 73.9% 0mm 999.9km Southeast  2.7m/s
17:00 Sunny 95°F 73% 0mm 999.9km Southeast  2.7m/s
20:00 Sunny 90°F 68.5% 0mm 999.9km Southeast  1.9m/s
23:00 Sunny 88°F 76% 0mm 999.9km Southeast  1.4m/s
02:00 Sunny 87°F 92.8% 0mm 999.9km Southeast  1.4m/s
05:00 Sunny 85°F 81.1% 0mm 999.9km Southeast  1.6m/s